[[{"header":{"parameterUnit":"m.s-1","parameterCategory":1,"la1":30.2991,"la2":30.254,"lo1":-89.0895,"lo2":-89.0444,"dy":0.0017,"dx":0.0017,"nx":28,"ny":28,"refTime":"2025-06-17T21:00:00:Z","depth":0,"parameterNumber":2,"parameterNumberName":"U-component_of_WINDS"},"data":[0,0,0,0,0,0,0,0,0,0,0,0,0,0,0,0,0,0,0,0,0,0,0,0,0,0,0,0,0,0,0,0,0,0,0,0,0,0,0,0,0,0,0,0,0,0,0,0,0,0,0,0,0,0,0,0,0,0,0.6151,0.6151,0,0.6171,0.6172,0.6172,0.6159,0.6158,0.6157,0.6157,0.6176,0.6177,0.6178,0,0,0,0,0,0,0,0,0,0,0,0,0,0.6098,0.6099,0.6151,0.6151,0.6152,0.6171,0.6172,0.6172,0.6159,0.6158,0.6157,0.6156,0.6176,0.6177,0.6178,0,0,0,0,0,0,0,0,0,0,0,0,0,0.612,0.6099,0.6151,0.6147,0.6147,0.6171,0.6172,0.6172,0.6159,0.6158,0.6157,0.6156,0.6175,0.6177,0.6178,0.6207,0,0,0.6183,0.6184,0,0,0,0,0,0,0,0,0.6119,0.6122,0.6148,0.6148,0.6148,0.6162,0.616,0.6184,0.6159,0.6154,0.6157,0.6156,0.6172,0.6174,0.6179,0.6207,0.6208,0.6183,0.6184,0.6185,0.6186,0,0,0,0,0,0,0,0.6117,0.6121,0.6159,0.6148,0.6148,0.6144,0.6146,0.6164,0.6168,0.6155,0.6154,0.6156,0.6172,0.6178,0.618,0.6209,0.6183,0.6185,0.6186,0.6186,0.6259,0.626,0,0,0,0,0,0,0.6116,0.612,0.6158,0.616,0.6131,0.6146,0.6148,0.6158,0.6168,0.6168,0.6157,0.6156,0.6176,0.6178,0.618,0.6213,0.6185,0.6187,0.6188,0.6258,0.6259,0.626,0,0,0,0,0,0,0.6115,0.612,0.6158,0.6139,0.6144,0.6147,0.6159,0.6159,0.6165,0.617,0.617,0.6163,0.6175,0.6178,0.62,0.6213,0.6187,0.6189,0.6257,0.6258,0.626,0.6278,0,0,0,0,0,0,0.6114,0.612,0.6131,0.614,0.6145,0.6177,0.616,0.616,0.6168,0.6166,0.6175,0.6176,0.6174,0.6198,0.6201,0.6215,0.619,0.6256,0.6258,0.6259,0.6276,0.628,0.6283,0,0,0,0,0,0.6112,0.6136,0.6132,0.6136,0.6159,0.6178,0.6181,0.618,0.6169,0.618,0.6183,0.6176,0.6211,0.62,0.6204,0.6218,0.6255,0.6257,0.6259,0.6275,0.6279,0.6283,0,0,0,0,0,0,0.6128,0.6137,0.6133,0.616,0.6168,0.6176,0.619,0.6185,0.6196,0.6194,0.6191,0.6193,0.6215,0.6219,0.6206,0.6245,0.6231,0.6234,0.6242,0.6246,0.625,0.6248,0.6191,0,0,0,0,0,0.6135,0.615,0.6157,0.618,0.6184,0.6186,0.6195,0.6193,0.6201,0.6205,0.6209,0.6217,0.623,0.6238,0.6251,0.6277,0.6278,0.6289,0.6292,0.6295,0.6298,0.631,0.6315,0.6267,0.6267,0.6267,0,0,0.6149,0.6155,0.6165,0.6183,0.619,0.6204,0.619,0.6206,0.6217,0.6207,0.6227,0.6231,0.624,0.6264,0.6274,0.6267,0.6311,0.6298,0.63,0.6301,0.6313,0.6317,0.6321,0.6269,0.6268,0.6268,0,0,0.6181,0.6189,0.6208,0.6215,0.6225,0.6226,0.623,0.6239,0.6241,0.6261,0.6254,0.6266,0.6289,0.6295,0.6301,0.6335,0.6328,0.6339,0.6356,0.6369,0.6372,0.6376,0.6386,0.639,0.6341,0.6341,0.6341,0,0.6197,0.622,0.6218,0.6235,0.6243,0.6235,0.6254,0.626,0.6274,0.6278,0.6271,0.6298,0.6304,0.6328,0.6336,0.6342,0.6346,0.6337,0.6372,0.6375,0.6378,0.6388,0.6393,0.6343,0.6342,0.6342,0.6342,0,0.6238,0.6254,0.6268,0.6281,0.629,0.6308,0.6308,0.6318,0.6315,0.6317,0.6337,0.6343,0.6356,0.6362,0.6359,0.6385,0.638,0.6373,0.6358,0.6384,0.6393,0.6397,0.6344,0.6344,0.6344,0.6343,0,0,0.6281,0.6292,0.6298,0.6303,0.6313,0.6324,0.6341,0.6354,0.6361,0.6371,0.6384,0.6403,0.6395,0.6402,0.64,0.6411,0.6436,0.6402,0.6402,0.6407,0.6463,0.6468,0.6473,0.6432,0.6433,0.6433,0.6462,0,0.6313,0.6343,0.6341,0.6369,0.6382,0.6375,0.6389,0.6397,0.6398,0.6409,0.6411,0.6424,0.6414,0.6418,0.6429,0.6431,0.6447,0.6429,0.6443,0.6443,0.6439,0.6478,0.6483,0.651,0.6466,0.6466,0.6467,0,0.6354,0.6364,0.6393,0.64,0.6406,0.6419,0.6429,0.6441,0.6448,0.6449,0.6456,0.6452,0.6468,0.6454,0.6475,0.6463,0.6469,0.647,0.6471,0.6471,0.6456,0.6477,0.6519,0.6522,0.6473,0.6472,0.6472,0,0.638,0.6402,0.6421,0.6426,0.6435,0.6444,0.6448,0.6455,0.6462,0.6472,0.6476,0.6487,0.6493,0.6501,0.65,0.649,0.6521,0.6507,0.652,0.652,0.6526,0.6525,0.6567,0.6532,0.6532,0.6532,0.6532,0,0.6415,0.6432,0.6433,0.6445,0.6464,0.6462,0.6481,0.6484,0.649,0.6501,0.6496,0.6506,0.6505,0.6515,0.6514,0.6531,0.6534,0.6534,0.6533,0.6534,0.6533,0.6536,0.6534,0.6533,0.6533,0.6533,0.6532,0,0.6447,0.6448,0.6469,0.6476,0.6478,0.6491,0.6496,0.6507,0.6508,0.6523,0.6526,0.6528,0.654,0.654,0.6554,0.6553,0.6573,0.6571,0.657,0.6569,0.6582,0.658,0.6626,0.6631,0.6594,0.6595,0.6595,0,0.6469,0.6482,0.649,0.6497,0.6502,0.6514,0.6521,0.652,0.6528,0.6537,0.6546,0.6558,0.6567,0.6586,0.6588,0.6598,0.6595,0.6611,0.6597,0.6596,0.6594,0.6593,0.6593,0.6613,0.6614,0.6614,0.6614,0,0.6506,0.6506,0.6517,0.6528,0.6536,0.6545,0.6553,0.6559,0.6558,0.6567,0.6579,0.6586,0.66,0.6611,0.6621,0.6624,0.6619,0.6619,0.6622,0.6622,0.6621,0.662,0.6576,0.6617,0.6617,0.6617,0.6617,0.6617,0.6532,0.6543,0.655,0.6562,0.6568,0.6575,0.6585,0.6587,0.6598,0.6609,0.6608,0.6621,0.6627,0.6639,0.6644,0.6653,0.6648,0.6653,0.6654,0.6655,0.6656,0.662,0.6655,0.6655,0.6655,0.6655,0.6655,0,0.6568,0.6572,0.6583,0.6594,0.6603,0.6598,0.6606,0.6614,0.6626,0.6632,0.6641,0.6655,0.6665,0.6668,0.6678,0.6685,0.6683,0.6688,0.6686,0.6687,0.6661,0.6656,0.6689,0.6689,0.6689,0.6689,0.6689,0.6689,0.6588,0.6605,0.6605,0.6625,0.6629,0.6642,0.6647,0.6653,0.6658,0.6674,0.6682,0.6684,0.6689,0.6699,0.6708,0.6709,0.6712,0.6718,0.6717,0.6692,0.6689,0.6686,0.6681,0.6719,0.6719,0.6742,0.6742,0.6742]},{"header":{"parameterUnit":"m.s-1","parameterCategory":1,"la1":30.2991,"la2":30.254,"lo1":-89.0895,"lo2":-89.0444,"dy":0.0017,"dx":0.0017,"nx":28,"ny":28,"refTime":"2025-06-17T21:00:00:Z","depth":0,"parameterNumber":3,"parameterNumberName":"V-component_of_WINDS"},"data":[0,0,0,0,0,0,0,0,0,0,0,0,0,0,0,0,0,0,0,0,0,0,0,0,0,0,0,0,0,0,0,0,0,0,0,0,0,0,0,0,0,0,0,0,0,0,0,0,0,0,0,0,0,0,0,0,0,0,5.0797,5.0798,0,5.0904,5.0905,5.0906,5.0854,5.0851,5.0848,5.0846,5.0948,5.0954,5.0959,0,0,0,0,0,0,0,0,0,0,0,0,0,5.0538,5.0543,5.0797,5.0798,5.08,5.0904,5.0905,5.0907,5.0854,5.0851,5.0848,5.0844,5.0947,5.0953,5.0959,0,0,0,0,0,0,0,0,0,0,0,0,0,5.0648,5.0545,5.0797,5.0786,5.0786,5.0904,5.0905,5.0907,5.0855,5.0851,5.0847,5.0843,5.0945,5.0952,5.096,5.1092,0,0,5.0984,5.0988,0,0,0,0,0,0,0,0,5.0642,5.0658,5.0786,5.0787,5.0787,5.0861,5.0852,5.0969,5.0856,5.0829,5.0846,5.0841,5.0922,5.0932,5.0961,5.1097,5.1101,5.0985,5.099,5.0993,5.0996,0,0,0,0,0,0,0,5.0634,5.0653,5.0839,5.0788,5.0789,5.0773,5.0784,5.0874,5.0897,5.0831,5.0827,5.0841,5.0922,5.0953,5.0963,5.1103,5.0985,5.0992,5.0997,5.1,5.1349,5.1353,0,0,0,0,0,0,5.0628,5.0647,5.0836,5.0842,5.0703,5.0781,5.0794,5.0842,5.0896,5.09,5.0844,5.0838,5.0942,5.0954,5.0966,5.1122,5.0993,5.1001,5.1005,5.1344,5.135,5.1354,0,0,0,0,0,0,5.0623,5.0646,5.0831,5.0744,5.0766,5.079,5.0845,5.0846,5.0878,5.0907,5.091,5.0873,5.0939,5.0955,5.1061,5.1125,5.1004,5.1012,5.1339,5.1346,5.1352,5.1437,0,0,0,0,0,0,5.0616,5.0644,5.0697,5.0745,5.0771,5.0927,5.0849,5.0851,5.0892,5.0885,5.0934,5.0938,5.0937,5.1049,5.1069,5.1134,5.1018,5.1333,5.1342,5.135,5.1428,5.1446,5.146,0,0,0,0,0,5.0607,5.0715,5.07,5.0723,5.0838,5.0931,5.0945,5.0944,5.0898,5.0949,5.0967,5.0936,5.1115,5.1061,5.1082,5.1151,5.1329,5.1339,5.1349,5.1421,5.1442,5.146,0,0,0,0,0,0,5.0672,5.0722,5.0705,5.0833,5.0879,5.0922,5.0987,5.0967,5.1024,5.1015,5.1008,5.102,5.1129,5.115,5.1089,5.1279,5.1214,5.1229,5.1262,5.1282,5.1298,5.129,5.1024,0,0,0,0,0,5.0701,5.0776,5.0814,5.0923,5.0947,5.0963,5.1004,5.0999,5.1045,5.1063,5.1089,5.1132,5.1197,5.1241,5.1303,5.1431,5.1439,5.1488,5.1504,5.1517,5.153,5.1596,5.1618,5.1388,5.1387,5.1387,0,0,5.0763,5.0799,5.0846,5.0937,5.0972,5.1046,5.098,5.1062,5.1115,5.1074,5.1176,5.1197,5.1244,5.1361,5.1414,5.1382,5.1595,5.153,5.154,5.1546,5.1609,5.1631,5.165,5.1394,5.1393,5.1392,0,0,5.0912,5.0948,5.1042,5.1078,5.1132,5.1142,5.1164,5.1211,5.1224,5.1326,5.1296,5.1358,5.1472,5.1507,5.1539,5.17,5.1673,5.172,5.1803,5.1868,5.1886,5.1902,5.1958,5.1978,5.1732,5.1733,5.1733,0,5.0981,5.1094,5.1093,5.1177,5.1216,5.1184,5.1277,5.1312,5.1382,5.1409,5.1372,5.1513,5.1543,5.1667,5.1706,5.1734,5.1757,5.1714,5.1884,5.19,5.1915,5.1968,5.1989,5.1738,5.1737,5.1737,5.1736,0,5.1175,5.1254,5.1323,5.1393,5.1441,5.1529,5.1538,5.1585,5.1575,5.1588,5.169,5.1725,5.1793,5.1821,5.1812,5.1943,5.1921,5.1885,5.182,5.1943,5.1992,5.2012,5.1746,5.1744,5.1742,5.1741,0,0,5.137,5.1438,5.1463,5.1493,5.1549,5.1609,5.1693,5.1762,5.1801,5.185,5.1919,5.2016,5.1982,5.2019,5.2012,5.207,5.2192,5.2026,5.2027,5.2054,5.2335,5.2362,5.2385,5.2174,5.2178,5.2181,5.2331,0,5.1522,5.1674,5.1674,5.1813,5.1884,5.1853,5.1926,5.1967,5.198,5.204,5.2053,5.2121,5.2073,5.2094,5.215,5.2166,5.2248,5.2155,5.2236,5.2239,5.2225,5.2411,5.244,5.258,5.235,5.2353,5.2356,0,5.172,5.1778,5.1924,5.1968,5.1998,5.2064,5.2125,5.2184,5.2227,5.2233,5.2274,5.2258,5.2341,5.2273,5.2386,5.2323,5.2355,5.2368,5.2373,5.238,5.2305,5.2422,5.2624,5.2645,5.2386,5.2384,5.2382,0,5.1846,5.1959,5.2061,5.2088,5.2142,5.2189,5.2213,5.2253,5.2293,5.2346,5.2371,5.2432,5.2464,5.251,5.251,5.2461,5.2623,5.2556,5.2627,5.2628,5.2663,5.2661,5.2872,5.2686,5.2685,5.2685,5.2685,0,5.2015,5.2106,5.2118,5.218,5.2279,5.2277,5.2374,5.2393,5.2429,5.2492,5.2468,5.2528,5.2525,5.2584,5.2584,5.2676,5.2691,5.2695,5.2694,5.2697,5.2697,5.2718,5.2708,5.2691,5.2689,5.2688,5.2687,0,5.2172,5.2184,5.2293,5.2335,5.2348,5.2419,5.2453,5.2511,5.2522,5.2602,5.262,5.2636,5.2705,5.2709,5.2788,5.2787,5.2899,5.2887,5.2885,5.2882,5.2953,5.2946,5.3186,5.3216,5.3011,5.3013,5.3014,0,5.228,5.2349,5.2398,5.244,5.2468,5.2535,5.2576,5.2575,5.2618,5.2672,5.2723,5.2789,5.2842,5.2952,5.2969,5.3028,5.3017,5.3097,5.3025,5.3026,5.3016,5.3012,5.3018,5.311,5.3112,5.3114,5.3116,0,5.2468,5.247,5.2532,5.2595,5.2645,5.2694,5.274,5.2775,5.2778,5.2827,5.2898,5.2939,5.3019,5.3084,5.3142,5.3163,5.314,5.3138,5.3158,5.3161,5.3156,5.3158,5.2921,5.3133,5.3131,5.313,5.3129,5.3128,5.2603,5.2662,5.2706,5.2774,5.2809,5.2852,5.2908,5.2926,5.2985,5.3052,5.3047,5.3124,5.3163,5.3238,5.3264,5.3322,5.3295,5.3323,5.333,5.3337,5.3344,5.3148,5.3333,5.3332,5.3332,5.3331,5.3331,0,5.2789,5.2815,5.2879,5.2944,5.2997,5.2972,5.3021,5.3066,5.3135,5.3175,5.3227,5.3307,5.3369,5.3391,5.3451,5.3493,5.3484,5.3509,5.3505,5.351,5.3366,5.3343,5.3516,5.3516,5.3516,5.3516,5.3516,5.3515,5.2892,5.299,5.2997,5.3111,5.3136,5.3214,5.3243,5.3281,5.3313,5.3403,5.3456,5.347,5.3502,5.3563,5.3619,5.3623,5.3645,5.3675,5.3675,5.3539,5.3521,5.3503,5.3481,5.368,5.368,5.3814,5.3815,5.3816]}]]